SR9NCI Weather Reports


time (UTC)temp
F
wind
direction
speed
knots
gust
knots
rain 1hr
in
rain 24hr
in
rain mn
in
humidity
%
barometer
mb
20260504184431 70 157 1.7 4.3 0.00 0.00 0.00
20260504184031 71 157 1.7 4.3 0.00 0.00 0.00
20260504183628 71 157 2.6 4.3 0.00 0.00 0.00
20260504183227 72 157 3.5 4.3 0.00 0.00 0.00
20260504182819 72 180 3.5 5.2 0.00 0.00 0.00
20260504182417 72 180 3.5 5.2 0.00 0.00 0.00
20260504182016 72 157 2.6 4.3 0.00 0.00 0.00
20260504181614 72 159 2.6 4.3 0.00 0.00 0.00
20260504181212 73 188 3.5 7.0 0.00 0.00 0.00
20260504180811 73 185 2.6 3.5 0.00 0.00 0.00
20260504180409 73 198 3.5 5.2 0.00 0.00 0.00
20260504180007 74 180 3.5 6.1 0.00 0.00 0.00
20260504175606 73 192 4.3 7.8 0.00 0.00 0.00
20260504175204 74 202 3.5 5.2 0.00 0.00 0.00
20260504174756 74 198 3.5 6.1 0.00 0.00 0.00
20260504174353 74 202 4.3 7.0 0.00 0.00 0.00
20260504173952 74 207 5.2 7.8 0.00 0.00 0.00
20260504173551 74 202 5.2 8.7 0.00 0.00 0.00
20260504173149 75 197 6.1 9.6 0.00 0.00 0.00
20260504172747 75 199 6.1 8.7 0.00 0.00 0.00
20260504172345 75 200 7.8 13.9 0.00 0.00 0.00
20260504171944 75 200 7.8 11.3 0.00 0.00 0.00
20260504171543 75 201 8.7 13.9 0.00 0.00 0.00
20260504171141 75 207 7.0 11.3 0.00 0.00 0.00
20260504170732 75 211 8.7 11.3 0.00 0.00 0.00
20260504170330 76 209 7.8 12.2 0.00 0.00 0.00
20260504160300 81 193 5.2 8.7 0.00 0.00 0.00
20260504151032 81 167 6.1 8.7 0.00 0.00 0.00
20260504150624 81 197 8.7 13.0 0.00 0.00 0.00
20260504150222 81 176 7.8 10.4 0.00 0.00 0.00
20260504140954 81 166 7.8 9.6 0.00 0.00 0.00
20260504140553 81 162 9.6 13.9 0.00 0.00 0.00
20260504140150 81 164 10.4 13.9 0.00 0.00 0.00
20260504130513 80 189 7.0 10.4 0.00 0.00 0.00
20260504130111 79 207 6.1 9.6 0.00 0.00 0.00
20260504110403 80 158 8.7 12.2 0.00 0.00 0.00
20260504100333 77 182 8.7 11.3 0.00 0.00 0.00
20260504081829 73 151 9.6 15.6 0.00 0.00 0.00
20260504081428 73 150 8.7 13.9 0.00 0.00 0.00
20260504081027 72 135 9.6 14.8 0.00 0.00 0.00
20260504080743 73 151 8.7 14.8 0.00 0.00 0.00
20260504080625 73 151 8.7 14.8 0.00 0.00 0.00
20260504080224 73 144 8.7 11.3 0.00 0.00 0.00
20260504070145 75 164 7.8 11.3 0.00 0.00 0.00
20260504060114 68 148 7.8 12.2 0.00 0.00 0.00
20260504050442 66 145 8.7 13.0 0.00 0.00 0.00
20260504045633 65 144 8.7 13.9 0.00 0.00 0.00
20260504045230 65 137 9.6 13.9 0.00 0.00 0.00
20260504044829 64 136 8.7 17.4 0.00 0.00 0.00
20260504044428 65 137 6.1 10.4 0.00 0.00 0.00
20260504044027 64 158 9.6 12.2 0.00 0.00 0.00
20260504043625 64 141 6.1 8.7 0.00 0.00 0.00
20260504043223 64 148 7.8 11.3 0.00 0.00 0.00
20260504042822 64 139 8.7 13.0 0.00 0.00 0.00
20260504042420 64 150 7.8 11.3 0.00 0.00 0.00
20260504042012 64 145 7.0 9.6 0.00 0.00 0.00
20260504041609 63 150 7.0 9.6 0.00 0.00 0.00
20260504041208 63 139 7.8 13.0 0.00 0.00 0.00
20260504040807 63 146 7.0 9.6 0.00 0.00 0.00
20260504040405 62 150 7.0 10.4 0.00 0.00 0.00
20260504040003 62 143 7.0 11.3 0.00 0.00 0.00
20260504035601 62 148 7.0 9.6 0.00 0.00 0.00
20260504035200 62 141 6.1 10.4 0.00 0.00 0.00
20260504034759 61 141 7.0 10.4 0.00 0.00 0.00
20260504034356 61 141 7.0 9.6 0.00 0.00 0.00
20260504033948 61 150 7.0 8.7 0.00 0.00 0.00
20260504033546 61 148 7.0 9.6 0.00 0.00 0.00
20260504033145 61 153 7.8 13.9 0.00 0.00 0.00
20260504032744 61 141 8.7 12.2 0.00 0.00 0.00
20260504032341 61 136 8.7 11.3 0.00 0.00 0.00
20260504031940 61 143 7.8 10.4 0.00 0.00 0.00
20260504031538 60 144 7.8 11.3 0.00 0.00 0.00
20260504031137 61 136 7.8 10.4 0.00 0.00 0.00
20260504030735 61 139 9.6 12.2 0.00 0.00 0.00
20260504030333 61 139 7.8 12.2 0.00 0.00 0.00
20260504025524 61 142 8.7 11.3 0.00 0.00 0.00
20260504025121 60 141 7.0 8.7 0.00 0.00 0.00
20260504024720 61 141 7.0 11.3 0.00 0.00 0.00
20260504024319 61 143 7.8 11.3 0.00 0.00 0.00
20260504023918 60 141 7.8 12.2 0.00 0.00 0.00
20260504023515 60 137 7.0 9.6 0.00 0.00 0.00
20260504023114 61 133 7.8 13.9 0.00 0.00 0.00
20260504022713 61 145 7.8 11.3 0.00 0.00 0.00
20260504022311 61 135 7.0 9.6 0.00 0.00 0.00
20260504021903 61 137 7.8 11.3 0.00 0.00 0.00
20260504021500 61 130 6.1 8.7 0.00 0.00 0.00
20260504021059 61 135 6.1 8.7 0.00 0.00 0.00
20260504020658 61 148 8.7 15.6 0.00 0.00 0.00
20260504020256 61 137 6.1 9.6 0.00 0.00 0.00
20260504015854 61 137 7.8 12.2 0.00 0.00 0.00
20260504015452 61 137 7.0 10.4 0.00 0.00 0.00
20260504015051 61 138 6.1 8.7 0.00 0.00 0.00
20260504014650 61 138 5.2 8.7 0.00 0.00 0.00
20260504014247 61 131 7.8 11.3 0.00 0.00 0.00
20260504013839 61 136 6.1 7.8 0.00 0.00 0.00
20260504013437 61 138 7.8 10.4 0.00 0.00 0.00
20260504013036 61 138 7.8 10.4 0.00 0.00 0.00
20260504012634 61 135 7.0 10.4 0.00 0.00 0.00
20260504012233 61 137 7.0 10.4 0.00 0.00 0.00
20260504011832 61 129 6.1 10.4 0.00 0.00 0.00
20260504011430 61 133 7.0 13.9 0.00 0.00 0.00
20260504011029 61 143 5.2 8.7 0.00 0.00 0.00
20260504010627 61 144 3.5 5.2 0.00 0.00 0.00
20260504010225 61 153 5.2 7.8 0.00 0.00 0.00
20260504005817 61 152 6.1 9.6 0.00 0.00 0.00
20260504005415 61 152 4.3 7.0 0.00 0.00 0.00
20260504005013 61 147 4.3 7.8 0.00 0.00 0.00
20260504004612 61 157 3.5 7.0 0.00 0.00 0.00
20260504004210 61 156 4.3 6.1 0.00 0.00 0.00
20260504003809 61 145 4.3 7.0 0.00 0.00 0.00
20260504003406 61 154 5.2 7.8 0.00 0.00 0.00
20260504003005 61 141 3.5 7.8 0.00 0.00 0.00
20260504002604 61 134 4.3 7.8 0.00 0.00 0.00
20260504002202 62 140 4.3 8.7 0.00 0.00 0.00
20260504001753 61 151 5.2 9.6 0.00 0.00 0.00
20260504001351 62 139 4.3 7.0 0.00 0.00 0.00
20260504000950 62 141 4.3 7.8 0.00 0.00 0.00
20260504000549 62 148 6.1 9.6 0.00 0.00 0.00
20260504000148 61 135 5.2 8.7 0.00 0.00 0.00
20260503235344 61 146 7.0 10.4 0.00 0.00 0.00
20260503235211 61 145 7.0 11.3 0.00 0.00 0.00
20260503234943 62 144 7.0 10.4 0.00 0.00 0.00
20260503234542 61 145 7.0 11.3 0.00 0.00 0.00
20260503234139 62 146 7.0 9.6 0.00 0.00 0.00
20260503233731 62 143 7.0 9.6 0.00 0.00 0.00
20260503233329 62 150 7.0 11.3 0.00 0.00 0.00
20260503232928 62 151 7.8 13.9 0.00 0.00 0.00
20260503232526 62 155 6.1 8.7 0.00 0.00 0.00
20260503232124 62 146 6.1 8.7 0.00 0.00 0.00
20260503231723 62 150 7.8 9.6 0.00 0.00 0.00
20260503231321 62 150 6.1 10.4 0.00 0.00 0.00
20260503230919 62 144 6.1 7.8 0.00 0.00 0.00
20260503230518 62 135 5.2 9.6 0.00 0.00 0.00
20260503230116 62 153 6.1 8.7 0.00 0.00 0.00
20260503225708 62 138 5.2 8.7 0.00 0.00 0.00
20260503225306 62 141 5.2 7.0 0.00 0.00 0.00
20260503224904 62 145 5.2 7.8 0.00 0.00 0.00
20260503224503 62 150 6.1 8.7 0.00 0.00 0.00
20260503224101 62 157 6.1 8.7 0.00 0.00 0.00
20260503223700 62 153 6.1 9.6 0.00 0.00 0.00
20260503223257 63 153 6.1 9.6 0.00 0.00 0.00
20260503222856 63 144 6.1 10.4 0.00 0.00 0.00
20260503222455 63 151 5.2 8.7 0.00 0.00 0.00
20260503222053 63 151 5.2 7.0 0.00 0.00 0.00
20260503221644 63 151 6.1 9.6 0.00 0.00 0.00
20260503221242 63 146 4.3 7.8 0.00 0.00 0.00
20260503220841 63 151 6.1 8.7 0.00 0.00 0.00
20260503220540 62 148 4.3 7.8 0.00 0.00 0.00
20260503220440 62 148 4.3 7.8 0.00 0.00 0.00
20260503220036 63 136 5.2 7.8 0.00 0.00 0.00
20260503215638 62 157 4.3 6.1 0.00 0.00 0.00
20260503215635 63 145 5.2 8.7 0.00 0.00 0.00
20260503215233 62 157 4.3 6.1 0.00 0.00 0.00
20260503214832 63 168 5.2 7.0 0.00 0.00 0.00
20260503214431 63 151 3.5 6.1 0.00 0.00 0.00
20260503214027 63 157 3.5 4.3 0.00 0.00 0.00
20260503213620 63 157 3.5 7.0 0.00 0.00 0.00
20260503213218 64 158 3.5 5.2 0.00 0.00 0.00
20260503212817 64 176 3.5 6.1 0.00 0.00 0.00
20260503212013 64 157 2.6 4.3 0.00 0.00 0.00
20260503211612 64 157 3.5 5.2 0.00 0.00 0.00
20260503211210 64 157 3.5 7.8 0.00 0.00 0.00
20260503210808 63 178 3.5 4.3 0.00 0.00 0.00
20260503210407 64 170 6.1 7.8 0.00 0.00 0.00
20260503210006 63 154 3.5 6.1 0.00 0.00 0.00
20260503205557 63 135 3.5 6.1 0.00 0.00 0.00
20260503205154 63 135 3.5 5.2 0.00 0.00 0.00
20260503204753 64 127 4.3 5.2 0.00 0.00 0.00
20260503204352 64 135 3.5 6.1 0.00 0.00 0.00
20260503203950 64 135 3.5 5.2 0.00 0.00 0.00
20260503203549 64 135 3.5 5.2 0.00 0.00 0.00
20260503203146 64 141 3.5 6.1 0.00 0.00 0.00
20260503202745 64 137 2.6 6.1 0.00 0.00 0.00
20260503202345 64 145 4.3 7.0 0.00 0.00 0.00
20260503201943 64 147 3.5 5.2 0.00 0.00 0.00
20260503201533 64 141 3.5 7.8 0.00 0.00 0.00
20260503201132 65 147 4.3 7.0 0.00 0.00 0.00
20260503200731 65 140 4.3 6.1 0.00 0.00 0.00
20260503200330 65 154 3.5 6.1 0.00 0.00 0.00
20260503195927 65 157 4.3 7.0 0.00 0.00 0.00
20260503195526 65 150 4.3 7.0 0.00 0.00 0.00
20260503195124 66 156 5.2 7.8 0.00 0.00 0.00
20260503194723 66 157 5.2 7.8 0.00 0.00 0.00
20260503194321 66 157 4.3 7.0 0.00 0.00 0.00
20260503193919 67 156 4.3 7.8 0.00 0.00 0.00
20260503193511 67 165 5.2 7.0 0.00 0.00 0.00
20260503193109 68 161 5.2 8.7 0.00 0.00 0.00
20260503192708 68 165 4.3 6.1 0.00 0.00 0.00
20260503192306 68 174 6.1 8.7 0.00 0.00 0.00
20260503191904 69 191 5.2 7.0 0.00 0.00 0.00
20260503191503 69 172 6.1 8.7 0.00 0.00 0.00
20260503191101 69 191 5.2 7.8 0.00 0.00 0.00
20260503190659 69 186 5.2 8.7 0.00 0.00 0.00
20260503190258 69 202 4.3 6.1 0.00 0.00 0.00
20260503185856 69 192 6.1 7.8 0.00 0.00 0.00
20260503185448 70 192 6.1 8.7 0.00 0.00 0.00
20260503185045 70 182 6.1 9.6 0.00 0.00 0.00